Diboll, TX

1:32 PM CST on December 06, 2016 (GMT -0600)
Angelina County

Weather History for KLFK - February, 2014

Change the Weather History Date:

Wednesday, February 19, 2014

  Actual Average Record
Temperature  
Mean Temperature 71 °F 54 °F  
Max Temperature 81 °F 65 °F 86 °F (1986)
Min Temperature 61 °F 43 °F 16 °F (1936)
Degree Days  
Heating Degree Days 0 12  
Month to date heating degree days 284 257  
Since 1 July heating degree days 1717 1537  
Cooling Degree Days 6 0  
Month to date cooling degree days 13 0  
Year to date cooling degree days 13 8  
Growing Degree Days 20 (Base 50)    
Moisture  
Dew Point 60 °F    
Average Humidity 74    
Maximum Humidity 97    
Minimum Humidity 50    
Precipitation  
Precipitation 0.00 in 0.14 in 2.60 in (1932)
Month to date precipitation 1.01 2.66  
Year to date precipitation 2.21 6.84  
Snow  
Snow 0.00 in - - ()
Month to date snowfall T  
Since 1 July snowfall 3.2  
Snow Depth 0.00 in    
Sea Level Pressure  
Sea Level Pressure 29.92 in    
Wind  
Wind Speed 9 mph (SSE)    
Max Wind Speed 18 mph    
Max Gust Speed 24 mph    
Visibility 8 miles    
Events Fog    
T = Trace of Precipitation, MM = Missing Value Source: NWS Daily Summary

Daily Weather History Graph

Daily Weather History Graph

Search for Another Location

Airport or City:

Trip Planner

Search our weather history database for the weather conditions in past years. The results will help you decide how hot, cold, wet, or windy it might be!

Date:

Astronomy

Feb. 19, 2014 Rise Set
Actual Time 6:56 AM CST 6:09 PM CST
Civil Twilight 6:31 AM CST 6:34 PM CST
Nautical Twilight 6:03 AM CST 7:02 PM CST
Astronomical Twilight 5:35 AM CST 7:30 PM CST
Moon 10:42 PM CST (2/19) 9:22 AM CST (2/19)
Length of Visible Light 12h 02m
Length of Day
11h 13m
Waning Gibbous, 79% of the Moon is Illuminated
Feb 19
Waning Gibbous
Feb 22
Last Quarter
Mar 1
New
Mar 8
First Quarter
Mar 16
Full

Hourly Weather History & Observations

Time (CST) Temp. Dew Point Humidity Pressure Visibility Wind Dir Wind Speed Gust Speed Precip Events Conditions
12:53 AM 66.0 °F 61.0 °F 84% 29.97 in 10.0 mi South 5.8 mph - N/A   Overcast
1:11 AM 66.2 °F 60.8 °F 83% 29.98 in 10.0 mi South 6.9 mph - N/A   Overcast
1:53 AM 64.9 °F 61.0 °F 87% 29.98 in 10.0 mi South 6.9 mph - N/A   Overcast
2:53 AM 64.9 °F 60.1 °F 84% 29.97 in 10.0 mi South 3.5 mph - N/A   Overcast
3:53 AM 63.0 °F 60.1 °F 90% 29.96 in 9.0 mi East 3.5 mph - N/A   Mostly Cloudy
4:53 AM 64.0 °F 60.1 °F 87% 29.96 in 8.0 mi South 5.8 mph - N/A   Overcast
5:53 AM 63.0 °F 60.1 °F 90% 29.96 in 6.0 mi SE 3.5 mph - N/A   Overcast
6:37 AM 62.6 °F 59.0 °F 88% 29.97 in 6.0 mi SE 3.5 mph - N/A   Scattered Clouds
6:53 AM 61.0 °F 59.0 °F 93% 29.97 in 5.0 mi SE 3.5 mph - N/A   Clear
7:04 AM 60.8 °F 59.0 °F 94% 29.98 in 1.8 mi Calm Calm - N/A   Partly Cloudy
7:17 AM 60.8 °F 59.0 °F 94% 29.98 in 0.2 mi SE 3.5 mph - N/A Fog Fog
7:48 AM 62.6 °F 59.0 °F 88% 29.98 in 0.8 mi SE 4.6 mph - N/A   Mostly Cloudy
7:53 AM 63.0 °F 60.1 °F 90% 29.97 in 1.5 mi SE 4.6 mph - N/A   Mostly Cloudy
8:01 AM 62.6 °F 60.8 °F 94% 29.98 in 2.0 mi SE 4.6 mph - N/A   Mostly Cloudy
8:10 AM 64.4 °F 60.8 °F 88% 29.98 in 2.5 mi SE 5.8 mph - N/A   Overcast
8:21 AM 64.4 °F 62.6 °F 94% 29.98 in 3.0 mi SE 5.8 mph - N/A   Mostly Cloudy
8:36 AM 64.4 °F 62.6 °F 94% 29.98 in 6.0 mi SSE 6.9 mph - N/A   Mostly Cloudy
8:53 AM 68.0 °F 62.1 °F 81% 29.97 in 10.0 mi SSE 12.7 mph - N/A   Partly Cloudy
9:53 AM 72.0 °F 61.0 °F 68% 29.97 in 10.0 mi SSE 11.5 mph 17.3 mph N/A   Scattered Clouds
10:44 AM 75.2 °F 60.8 °F 61% 29.97 in 10.0 mi South 15.0 mph - N/A   Mostly Cloudy
10:53 AM 75.0 °F 60.1 °F 60% 29.96 in 10.0 mi South 15.0 mph - N/A   Scattered Clouds
11:53 AM 75.9 °F 59.0 °F 56% 29.95 in 10.0 mi SSW 11.5 mph - N/A   Mostly Cloudy
12:53 PM 77.0 °F 57.9 °F 52% 29.91 in 10.0 mi SSW 10.4 mph 21.9 mph N/A   Mostly Cloudy
1:54 PM 78.1 °F 59.0 °F 52% 29.88 in 10.0 mi South 12.7 mph - N/A   Unknown
2:53 PM 78.1 °F 59.0 °F 52% 29.85 in 10.0 mi SSW 15.0 mph 23.0 mph N/A   Mostly Cloudy
3:53 PM 79.0 °F 60.1 °F 52% 29.83 in 10.0 mi South 13.8 mph 21.9 mph N/A   Scattered Clouds
4:53 PM 78.1 °F 60.1 °F 54% 29.82 in 10.0 mi South 16.1 mph 23.0 mph N/A   Partly Cloudy
5:53 PM 75.0 °F 60.1 °F 60% 29.81 in 10.0 mi SSE 10.4 mph - N/A   Clear
6:53 PM 73.0 °F 61.0 °F 66% 29.82 in 10.0 mi South 12.7 mph 20.7 mph N/A   Clear
7:53 PM 70.0 °F 61.0 °F 73% 29.82 in 10.0 mi SSE 10.4 mph - N/A   Clear
8:53 PM 69.1 °F 61.0 °F 75% 29.82 in 10.0 mi SSE 12.7 mph - N/A   Scattered Clouds
9:07 PM 69.8 °F 60.8 °F 73% 29.83 in 10.0 mi SSE 15.0 mph - N/A   Mostly Cloudy
9:53 PM 68.0 °F 61.0 °F 78% 29.82 in 10.0 mi SSE 8.1 mph - N/A   Overcast
10:53 PM 68.0 °F 61.0 °F 78% 29.82 in 10.0 mi South 8.1 mph - N/A   Overcast
11:53 PM 69.1 °F 60.1 °F 73% 29.80 in 10.0 mi South 9.2 mph 23.0 mph N/A   Overcast